User: anonymous   Login
Location: Unspecified
(0.0000°N, 0.0000°E)
Time: 18:33:52
(UTC+00:00)
Language:

USA 93 - Orbit

View from above orbital plane
View from above orbital plane
View from above satellite
View from above satellite

Ground track
Ground track

The orbit data is extracted from the following two-line orbital elements,

1 22719U 93046A   21136.70387633  .00000060  00000-0  00000-0 0  9999
2 22719  12.3057  26.8766 0007877  28.1160 141.9416  0.99048193  6794
Epoch (UTC): 16 May 2021 16:53:34
Eccentricity: 0.0007877
inclination: 12.3057°
perigee height: 36099 km
apogee height: 36166 km
right ascension of ascending node: 26.8766°
argument of perigee: 28.1160°
revolutions per day: 0.99048193
mean anomaly at epoch: 141.9416°
orbit number at epoch: 679

The dashed part of the orbit path shows where the satellite is in the earth's shadow,  

DLR